Stündliche Wetter Bárna

Heute, 31 Oktober, Samstag

Zeit Temperatur Niederschläge Wind Luftdruck Luftfeuchtigkeit
00:00 +8°C° 0.1 mm 4 m/S 724 mmHg 92%
01:00 +9°C° 0 mm 5 m/S 723 mmHg 91%
02:00 +9°C° 0 mm 5 m/S 723 mmHg 90%
03:00 +9°C° 0 mm 5 m/S 723 mmHg 90%
04:00 +9°C° 0 mm 5 m/S 722 mmHg 90%
05:00 +10°C° 0 mm 4 m/S 723 mmHg 90%
06:00 +10°C° 0 mm 3 m/S 723 mmHg 91%
07:00 +10°C° 0 mm 3 m/S 723 mmHg 92%
08:00 +10°C° 0.1 mm 2 m/S 724 mmHg 91%
09:00 +10°C° 0.1 mm 2 m/S 724 mmHg 90%
10:00 +11°C° 0.1 mm 1 m/S 725 mmHg 89%
11:00 +12°C° 0 mm 1 m/S 725 mmHg 82%
12:00 +12°C° 0 mm 2 m/S 726 mmHg 75%
13:00 +13°C° 0 mm 2 m/S 726 mmHg 68%
14:00 +12°C° 0 mm 2 m/S 726 mmHg 69%
15:00 +10°C° 0 mm 2 m/S 726 mmHg 70%
16:00 +10°C° 0 mm 1 m/S 726 mmHg 71%
17:00 +9°C° 0 mm 1 m/S 726 mmHg 74%
18:00 +8°C° 0 mm 1 m/S 727 mmHg 77%
19:00 +7°C° 0 mm 1 m/S 727 mmHg 80%
20:00 +7°C° 0 mm 1 m/S 727 mmHg 80%
21:00 +6°C° 0 mm 1 m/S 727 mmHg 81%
22:00 +5°C° 0 mm 0 m/S 727 mmHg 81%
23:00 +5°C° 0 mm 0 m/S 727 mmHg 82%

Morgen, 1 November, Sonntag

Zeit Temperatur Niederschläge Wind Luftdruck Luftfeuchtigkeit
00:00 +4°C° 0 mm 0 m/S 727 mmHg 82%
01:00 +4°C° 0 mm 0 m/S 727 mmHg 83%
02:00 +4°C° 0 mm 0 m/S 727 mmHg 83%
03:00 +4°C° 0 mm 0 m/S 727 mmHg 84%
04:00 +3°C° 0 mm 0 m/S 727 mmHg 84%
05:00 +3°C° 0 mm 0 m/S 727 mmHg 84%
06:00 +3°C° 0 mm 0 m/S 727 mmHg 85%
07:00 +3°C° 0 mm 0 m/S 727 mmHg 85%
08:00 +5°C° 0 mm 0 m/S 727 mmHg 78%
09:00 +8°C° 0 mm 1 m/S 727 mmHg 72%
10:00 +9°C° 0 mm 1 m/S 727 mmHg 65%
11:00 +10°C° 0 mm 1 m/S 727 mmHg 65%
12:00 +9°C° 0 mm 2 m/S 726 mmHg 65%
13:00 +9°C° 0 mm 2 m/S 726 mmHg 65%
14:00 +9°C° 0 mm 2 m/S 726 mmHg 68%
15:00 +9°C° 0 mm 1 m/S 725 mmHg 72%
16:00 +8°C° 0 mm 1 m/S 725 mmHg 75%
17:00 +8°C° 0 mm 1 m/S 725 mmHg 75%
18:00 +8°C° 0 mm 1 m/S 725 mmHg 76%
19:00 +8°C° 0 mm 1 m/S 725 mmHg 76%
20:00 +8°C° 0.2 mm 1 m/S 725 mmHg 78%
21:00 +8°C° 0.2 mm 1 m/S 724 mmHg 80%
22:00 +8°C° 0.2 mm 1 m/S 724 mmHg 82%
23:00 +8°C° 0.4 mm 1 m/S 724 mmHg 85%

übermorgen, 2 November, Montag

Zeit Temperatur Niederschläge Wind Luftdruck Luftfeuchtigkeit
00:00 +8°C° 0.4 mm 1 m/S 724 mmHg 87%
01:00 +8°C° 0.4 mm 1 m/S 724 mmHg 90%
02:00 +7°C° 0.2 mm 2 m/S 724 mmHg 92%
03:00 +7°C° 0.2 mm 2 m/S 724 mmHg 93%
04:00 +8°C° 0.2 mm 2 m/S 723 mmHg 95%
05:00 +8°C° 0 mm 2 m/S 724 mmHg 95%
06:00 +8°C° 0 mm 2 m/S 724 mmHg 95%
07:00 +9°C° 0 mm 2 m/S 724 mmHg 95%
08:00 +9°C° 0 mm 2 m/S 724 mmHg 93%
09:00 +10°C° 0 mm 2 m/S 724 mmHg 91%
10:00 +12°C° 0 mm 1 m/S 725 mmHg 89%
11:00 +12°C° 0 mm 1 m/S 725 mmHg 88%
12:00 +12°C° 0 mm 1 m/S 725 mmHg 88%
13:00 +13°C° 0 mm 1 m/S 725 mmHg 88%
14:00 +12°C° 0.2 mm 1 m/S 725 mmHg 90%
15:00 +11°C° 0.2 mm 0 m/S 725 mmHg 93%
16:00 +10°C° 0.2 mm 0 m/S 724 mmHg 95%
17:00 +10°C° 0.2 mm 0 m/S 725 mmHg 96%
18:00 +10°C° 0.2 mm 0 m/S 725 mmHg 96%
19:00 +10°C° 0.2 mm 0 m/S 725 mmHg 97%
20:00 +10°C° 0.1 mm 0 m/S 725 mmHg 97%
21:00 +10°C° 0.1 mm 0 m/S 725 mmHg 97%
22:00 +10°C° 0.1 mm 0 m/S 725 mmHg 97%
23:00 +10°C° 0 mm 0 m/S 725 mmHg 97%

3 November, Dienstag

Zeit Temperatur Niederschläge Wind Luftdruck Luftfeuchtigkeit
00:00 +10°C° 0 mm 0 m/S 725 mmHg 97%
01:00 +9°C° 0 mm 0 m/S 725 mmHg 96%
02:00 +9°C° 0 mm 0 m/S 725 mmHg 96%
03:00 +9°C° 0 mm 0 m/S 725 mmHg 96%
04:00 +9°C° 0 mm 0 m/S 725 mmHg 96%
05:00 +9°C° 0 mm 0 m/S 725 mmHg 96%
06:00 +9°C° 0 mm 0 m/S 725 mmHg 96%
07:00 +9°C° 0 mm 0 m/S 726 mmHg 96%
08:00 +10°C° 0 mm 0 m/S 726 mmHg 92%
09:00 +11°C° 0 mm 0 m/S 726 mmHg 89%
10:00 +12°C° 0 mm 0 m/S 727 mmHg 86%
11:00 +13°C° 0 mm 0 m/S 727 mmHg 86%
12:00 +13°C° 0 mm 0 m/S 727 mmHg 85%
13:00 +13°C° 0 mm 0 m/S 727 mmHg 85%
14:00 +13°C° 0 mm 0 m/S 726 mmHg 87%
15:00 +12°C° 0 mm 0 m/S 726 mmHg 89%
16:00 +12°C° 0 mm 0 m/S 726 mmHg 91%
17:00 +11°C° 0 mm 0 m/S 727 mmHg 92%
18:00 +11°C° 0 mm 0 m/S 727 mmHg 94%
19:00 +10°C° 0 mm 0 m/S 727 mmHg 95%
20:00 +10°C° 0 mm 0 m/S 727 mmHg 95%
21:00 +10°C° 0 mm 0 m/S 728 mmHg 95%
22:00 +10°C° 0 mm 0 m/S 728 mmHg 96%
23:00 +10°C° 0 mm 0 m/S 728 mmHg 96%

4 November, Mittwoch

Zeit Temperatur Niederschläge Wind Luftdruck Luftfeuchtigkeit
00:00 +10°C° 0 mm 0 m/S 728 mmHg 96%
01:00 +10°C° 0 mm 0 m/S 728 mmHg 96%
02:00 +10°C° 0 mm 0 m/S 728 mmHg 96%
03:00 +10°C° 0 mm 0 m/S 728 mmHg 95%
04:00 +10°C° 0 mm 0 m/S 728 mmHg 95%
05:00 +10°C° 0.1 mm 0 m/S 728 mmHg 94%
06:00 +11°C° 0.1 mm 1 m/S 728 mmHg 94%
07:00 +11°C° 0.1 mm 1 m/S 729 mmHg 93%
08:00 +11°C° 0.2 mm 1 m/S 729 mmHg 92%
09:00 +11°C° 0.2 mm 1 m/S 729 mmHg 91%
10:00 +11°C° 0.2 mm 1 m/S 729 mmHg 89%
11:00 +11°C° 0.1 mm 1 m/S 729 mmHg 88%
12:00 +10°C° 0.1 mm 2 m/S 729 mmHg 86%
13:00 +10°C° 0.1 mm 2 m/S 729 mmHg 84%
14:00 +10°C° 0 mm 1 m/S 729 mmHg 85%
15:00 +10°C° 0 mm 1 m/S 729 mmHg 86%
16:00 +10°C° 0 mm 1 m/S 729 mmHg 87%
17:00 +10°C° 0 mm 1 m/S 729 mmHg 87%
18:00 +9°C° 0 mm 1 m/S 730 mmHg 87%
19:00 +9°C° 0 mm 1 m/S 730 mmHg 88%
20:00 +9°C° 0.1 mm 1 m/S 730 mmHg 88%
21:00 +9°C° 0.1 mm 1 m/S 730 mmHg 88%
22:00 +9°C° 0.1 mm 1 m/S 731 mmHg 88%
23:00 +9°C° 0.1 mm 1 m/S 731 mmHg 88%

5 November, Donnerstag

Zeit Temperatur Niederschläge Wind Luftdruck Luftfeuchtigkeit
00:00 +9°C° 0.1 mm 1 m/S 731 mmHg 88%
01:00 +9°C° 0.1 mm 1 m/S 731 mmHg 88%
02:00 +9°C° 0.2 mm 1 m/S 731 mmHg 89%
03:00 +9°C° 0.2 mm 1 m/S 731 mmHg 90%
04:00 +9°C° 0.2 mm 1 m/S 731 mmHg 91%
05:00 +8°C° 0.5 mm 0 m/S 731 mmHg 92%
06:00 +8°C° 0.5 mm 0 m/S 731 mmHg 93%
07:00 +7°C° 0.5 mm 0 m/S 731 mmHg 94%
08:00 +7°C° 0.4 mm 0 m/S 732 mmHg 94%
09:00 +8°C° 0.4 mm 0 m/S 732 mmHg 94%
10:00 +9°C° 0.4 mm 1 m/S 732 mmHg 94%
11:00 +9°C° 0.2 mm 1 m/S 732 mmHg 93%
12:00 +9°C° 0.2 mm 1 m/S 732 mmHg 93%
13:00 +9°C° 0.2 mm 1 m/S 732 mmHg 92%
14:00 +9°C° 0.1 mm 1 m/S 732 mmHg 92%
15:00 +9°C° 0.1 mm 1 m/S 732 mmHg 91%
16:00 +9°C° 0.1 mm 1 m/S 732 mmHg 91%
17:00 +9°C° 0.1 mm 1 m/S 733 mmHg 90%
18:00 +8°C° 0.1 mm 2 m/S 733 mmHg 88%
19:00 +8°C° 0.1 mm 2 m/S 733 mmHg 87%
20:00 +7°C° 0 mm 2 m/S 733 mmHg 84%
21:00 +7°C° 0 mm 3 m/S 734 mmHg 81%
22:00 +7°C° 0 mm 3 m/S 734 mmHg 78%
23:00 +7°C° 0 mm 3 m/S 734 mmHg 78%
Mehr zeigen